OCEANSAT 2

Satellite information

Favourite Embed

Satellite Type and Status

PAYLOADIN ORBIT

Key statistics

Satellite OCEANSAT 2 at a glance.

Uptime

5826

Days in orbit

Revolutions

≈ 14.0

Per day

Orbit

SSO

Sun Synchronous Orbit

Inclination

98.2

Latest

Satellite identification and parameters

Extended collection of information and parameters for OCEANSAT 2.

Object identification

Identified? True

Debris? False

Object name: OCEANSAT 2

International designator: 2009-051A

Object number (NORAD): 35931

Object ID (CCSDS): 35931

Country: INDIA (IND)

Current information (Y/N): Y

RCS size: LARGE

Orbital parameters

Period: 102.886 minutes

Inclination: 98.2252 deg

SMA: 7273.295 km

Apoapsis: 906.537 km

Periapsis: 883.783 km

RAAN: 257.9126 deg

Eccentricy: 0.00156421

Argument of periapsis: 330.1199 deg

Mean anomaly: 29.9074 deg

Mean motion: 13.99606546 rev/day

Mean motion (dot): 0.00000393 rev/day2

B* drag term: 0.00029446602 1/REarth

Two-line elements (TLE)

Creation date: Sept. 4, 2025, 10:13 a.m.

Reference frame: TEME

Reference center: EARTH

Epoch: Sept. 4, 2025, 6 a.m. UTC

TLE line 0: 0 OCEANSAT 2

TLE line 1: 1 35931U 09051A 25247.25036144 .00000393 00000-0 29447-3 0 9995

TLE line 2: 2 35931 98.2252 257.9126 0015642 330.1199 29.9074 13.99606546839333

Live tracking on map

Real-time ground track for satellite OCEANSAT 2.

In-orbit conjunctions

There are no conjunctions computed for OCEANSAT 2, at the moment. Check back to stay up to date, as we update our databases every day.

Go to all conjunctions

Associated space launch

Oceansat-2 is an earth observation and oceanography satellite operated by ISRO.

OCEANSAT 2 was lifted into orbit during the mission ‘PSLV | Oceansat-2’, on board a PSLV space rocket.

The launch took place on Sept. 23, 2009, 6:21 a.m. from Satish Dhawan Space Centre First Launch Pad.

For more information about the launch, click the button.

Launch to space PSLV | Oceansat-2
PSLV | Oceansat-2

Agency: N/A

Status: Launch Successful

Launch date: Sept. 23, 2009, 6:21 a.m. UTC

Rocket: PSLV

Launch pad: Satish Dhawan Space Centre First Launch Pad

Location: Satish Dhawan Space Centre, India

...

Latest news about this satellite

There are no fresh news available about this satellite. Check back as we update our databases every day.


Newsletter sign-up

Weekly statistics, charts and insights to help you stay on top of the space industry.